< < Back
Terminal Aerodrome Forecast


Current Version              Previous Versions:   1  2  3  4  5  6  7  8  9  

Terminal Aerodrome Forecast

892
FTUS42 KILM 280520
TAFILM
TAF
KILM 280520Z 2806/2906 24007KT P6SM SKC
     FM281700 23010G16KT P6SM SKC
     FM282200 22011KT P6SM SKC
     FM290000 21009KT P6SM SKC=

Latest METAR

003
SAUS70 KWBC 281200 RRD
MTRILM
METAR KILM 281153Z AUTO 27007KT 10SM CLR 29/24 A2996 RMK AO2 SLP145
T02890244 10289 20267 51009 PWINO


USA.gov is the U.S. government's official web portal to all federal, state and local government web resources and services.